Tracking 27405 objects as of 2-Jun-2023
HD Live streaming from Space Station
objects crossing your sky now

COSMOS 2251 DEB

Track COSMOS 2251 DEB now!
10-day predictions


NORAD ID: 34465
Int'l Code: 1993-036TJ
Perigee: 633.3 km
Apogee: 739.4 km
Inclination: 74.1 °
Period: 98.3 minutes
Semi major axis: 7057 km
RCS: 0.028 m2 (small)
Launch date: June 16, 1993
Source: Commonwealth of Independent States (former USSR) (CIS)
Launch site: PLESETSK MISSILE AND SPACE COMPLEX (PKMTR)

Note: This is SATELLITE DEBRIS
Your satellite tracking list
Your tracking list is empty




NASA's NSSDC Master Catalog

Two Line Element Set (TLE):
1 34465U 93036TJ  23152.88981538  .00010547  00000-0  19194-2 0  9999
2 34465  74.0735  19.9179 0075131 269.5676  89.6883 14.64341789752849
Source of the keplerian elements: AFSPC